User: anonymous   Login
Location: Morlupo
(42.1333°N, 12.5000°E)
Time: 01:44:54
(UTC+00:00)
Language:

Cosmos 1844 - Orbit

View from above orbital plane
View from above orbital plane
View from above satellite
View from above satellite

Ground track
Ground track

The orbit data is extracted from the following two-line orbital elements,

1 17973U 87041A   20328.52032350 -.00000149 +00000-0 -52903-4 0  9991
2 17973 070.8967 147.7918 0029621 038.2593 322.0622 14.14116778730404
Epoch (UTC): 23 November 2020 12:29:15
Eccentricity: 0.0029621
inclination: 70.8967°
perigee height: 824 km
apogee height: 867 km
right ascension of ascending node: 147.7918°
argument of perigee: 38.2593°
revolutions per day: 14.14116778
mean anomaly at epoch: 322.0622°
orbit number at epoch: 73040

The dashed part of the orbit path shows where the satellite is in the earth's shadow,  

DLR